Weather History for Panama City Tyndall AFB, FL

Change the Weather History Date:

Thursday, February 13, 2014

  Actual Average Record
Temperature  
Mean Temperature 48 °F -  
Max Temperature 55 °F 63 °F 75 °F (2000)
Min Temperature 40 °F 46 °F 33 °F (2006)
Degree Days  
Heating Degree Days 18    
Moisture  
Dew Point 27 °F    
Average Humidity 51    
Maximum Humidity 66    
Minimum Humidity 34    
Precipitation  
Precipitation 0.01 in - - ()
Sea Level Pressure  
Sea Level Pressure 29.92 in    
Wind  
Wind Speed 12 mph (NW)    
Max Wind Speed 17 mph    
Max Gust Speed 24 mph    
Visibility 10 miles    
Events      
Averages and records for this station are not official NWS values.
T = Trace of Precipitation, MM = Missing Value Source: NWS Daily Summary

Daily Weather History Graph

Daily Weather History Graph

Search for Another Location

Airport:

Trip Planner

Search our weather history database for the weather conditions in past years. The results will help you decide how hot, cold, wet, or windy it might be!

Date:

Astronomy

Feb. 13, 2014 Rise Set
Actual Time 6:23 AM CST 5:29 PM CST
Civil Twilight 5:59 AM CST 5:54 PM CST
Nautical Twilight 5:31 AM CST 6:22 PM CST
Astronomical Twilight 5:03 AM CST 6:50 PM CST
Moon 4:36 PM CST (2/13) 5:15 AM CST (2/13)
Length of Visible Light 11h 54m
Length of Day
11h 05m
Waxing Gibbous, 99% of the Moon is Illuminated
Feb 13
Waxing Gibbous
Feb 14
Full
Feb 22
Last Quarter
Mar 1
New
Mar 8
First Quarter

Hourly Weather History & Observations

Time (CST) Temp. Windchill Dew Point Humidity Pressure Visibility Wind Dir Wind Speed Gust Speed Precip Events Conditions
12:03 AM 41.0 °F 34.7 °F 26.6 °F 57% 29.82 in 10.0 mi NNW 10.4 mph - N/A   Overcast
12:08 AM 41.0 °F 35.8 °F 26.6 °F 57% 29.82 in 10.0 mi NNW 8.1 mph - N/A   Overcast
12:28 AM 41.0 °F 34.7 °F 26.6 °F 57% 29.82 in 10.0 mi NNW 10.4 mph - N/A   Overcast
12:53 AM 41.0 °F 33.1 °F 26.6 °F 57% 29.83 in 10.0 mi NW 15.0 mph - N/A   Overcast
12:58 AM 41.0 °F 34.7 °F 27.3 °F 58% 29.85 in 10.0 mi NNW 10.4 mph - N/A   Overcast
1:28 AM 41.0 °F 32.8 °F 26.6 °F 57% 29.84 in 10.0 mi NW 16.1 mph - N/A   Overcast
1:43 AM 41.0 °F 33.5 °F 26.6 °F 57% 29.85 in 10.0 mi NW 13.8 mph - N/A   Overcast
1:48 AM 41.0 °F 33.9 °F 26.6 °F 57% 29.85 in 10.0 mi NW 12.7 mph - N/A   Overcast
1:58 AM 40.6 °F 32.7 °F 26.2 °F 57% 29.86 in 10.0 mi NW 15.0 mph - N/A   Overcast
2:23 AM 41.0 °F 32.8 °F 26.6 °F 57% 29.85 in 10.0 mi NNW 16.1 mph - N/A   Overcast
2:58 AM 40.6 °F 34.3 °F 25.3 °F 54% 29.87 in 10.0 mi NW 10.4 mph - N/A   Overcast
3:08 AM 41.0 °F 33.5 °F 24.8 °F 53% 29.86 in 10.0 mi NW 13.8 mph - N/A   Overcast
3:23 AM 41.0 °F 33.9 °F 24.8 °F 53% 29.86 in 10.0 mi NW 12.7 mph - N/A   Overcast
3:48 AM 41.0 °F 33.1 °F 24.8 °F 53% 29.87 in 10.0 mi NW 15.0 mph 21.9 mph N/A   Overcast
3:53 AM 41.0 °F 33.1 °F 24.8 °F 53% 29.88 in 10.0 mi NW 15.0 mph 21.9 mph N/A   Overcast
3:58 AM 41.0 °F 32.5 °F 25.0 °F 53% 29.89 in 10.0 mi NW 17.3 mph 21.9 mph N/A   Overcast
4:03 AM 41.0 °F 32.5 °F 24.8 °F 53% 29.88 in 10.0 mi NW 17.3 mph 23.0 mph N/A   Overcast
4:13 AM 41.0 °F 32.5 °F 24.8 °F 53% 29.88 in 10.0 mi NW 17.3 mph 23.0 mph N/A   Overcast
4:58 AM 40.8 °F 32.6 °F 23.9 °F 51% 29.91 in 10.0 mi NW 16.1 mph 24.2 mph N/A   Overcast
5:58 AM 40.8 °F 33.3 °F 24.1 °F 51% 29.93 in 10.0 mi NNW 13.8 mph 19.6 mph 0.01 in   Overcast
6:53 AM 41.0 °F 33.1 °F 24.8 °F 53% 29.94 in 10.0 mi NW 15.0 mph 23.0 mph N/A   Overcast
6:58 AM 40.6 °F 32.7 °F 24.4 °F 53% 29.95 in 10.0 mi NW 15.0 mph 21.9 mph N/A   Overcast
7:53 AM 41.0 °F 33.5 °F 23.0 °F 49% 29.96 in 10.0 mi NNW 13.8 mph 19.6 mph N/A   Overcast
7:58 AM 41.2 °F 35.0 °F 24.1 °F 51% 29.97 in 10.0 mi NNW 10.4 mph 19.6 mph N/A   Overcast
8:03 AM 41.0 °F 33.9 °F 24.8 °F 53% 29.97 in 10.0 mi NNW 12.7 mph 19.6 mph N/A   Overcast
8:58 AM 41.7 °F 35.2 °F 23.7 °F 49% 29.99 in 10.0 mi NNW 11.5 mph - N/A   Overcast
9:58 AM 44.4 °F 37.5 °F 23.9 °F 44% 30.00 in 10.0 mi NNW 15.0 mph 19.6 mph N/A   Overcast
10:03 AM 42.8 °F 35.8 °F 23.0 °F 46% 29.99 in 10.0 mi NNW 13.8 mph 19.6 mph N/A   Mostly Cloudy
10:17 AM 46.4 °F 40.4 °F 23.0 °F 40% 29.99 in 10.0 mi North 13.8 mph 17.3 mph N/A   Scattered Clouds
10:58 AM 45.7 °F 39.5 °F 24.1 °F 43% 29.99 in 10.0 mi NW 13.8 mph - N/A   Partly Cloudy
11:58 AM 48.0 °F - 23.4 °F 38% 29.95 in 10.0 mi NNW 10.4 mph 18.4 mph N/A   Clear
12:58 PM 51.3 °F - 25.5 °F 37% 29.95 in 10.0 mi WNW 10.4 mph - N/A   Clear
1:58 PM 54.0 °F - 25.9 °F 34% 29.93 in 10.0 mi NW 10.4 mph - N/A   Clear
2:53 PM 55.4 °F - 30.2 °F 38% 29.93 in 10.0 mi West 17.3 mph - N/A   Clear
2:58 PM 54.7 °F - 30.7 °F 40% 29.94 in 10.0 mi WSW 15.0 mph - N/A   Clear
3:58 PM 53.2 °F - 30.9 °F 43% 29.94 in 10.0 mi West 13.8 mph - N/A   Clear
4:58 PM 52.5 °F - 31.3 °F 44% 29.96 in 10.0 mi WNW 13.8 mph - N/A   Clear
5:58 PM 50.9 °F - 32.0 °F 48% 29.97 in 10.0 mi West 10.4 mph - N/A   Clear
6:58 PM 50.4 °F - 33.1 °F 52% 29.98 in 10.0 mi WNW 6.9 mph - N/A   Clear
7:58 PM 46.9 °F - 32.2 °F 57% 30.01 in 10.0 mi NW 4.6 mph - N/A   Clear
8:58 PM 46.0 °F 43.9 °F 29.8 °F 53% 30.02 in 10.0 mi NW 4.6 mph - N/A   Clear
9:58 PM 44.1 °F - 31.1 °F 60% 30.01 in 10.0 mi NNW 2.3 mph - N/A   Clear
10:58 PM 43.2 °F - 30.4 °F 61% 30.02 in 10.0 mi Calm Calm - N/A   Clear
11:58 PM 42.1 °F - 31.3 °F 66% 30.03 in 10.0 mi NNW 2.3 mph - N/A   Clear